EW5037 Weather Reports


Display with metric or nautical units.
time (UTC)temp
F
wind
direction
speed
MPH
gust
MPH
rain 1hr
in
rain 24hr
in
rain mn
in
humidity
%
barometer
mb
20260510003950 70 135 3.0 4.0 0.00 0.00 0.00 87 1013.2
20260510003821 70 68 3.0 4.0 0.00 0.00 0.00 87 1013.2
20260510001818 70 68 2.0 4.0 0.00 0.00 0.00 87 1013.7
20260510001209 70 68 1.0 3.0 0.00 0.00 0.00 87 1013.7
20260509235640 70 68 2.0 3.0 0.00 0.00 0.00 87 1013.4
20260509234556 70 113 3.0 4.0 0.00 0.00 0.00 87 1013.4
20260509233516 70 68 2.0 4.0 0.00 0.00 0.00 87 1013.5
20260509232427 70 68 2.0 4.0 0.00 0.00 0.00 87 1013.5
20260509231341 70 45 3.0 3.0 0.00 0.00 0.00 87 1013.2
20260509230253 70 45 3.0 5.0 0.00 0.00 0.00 87 1013.2
20260509225208 70 68 4.0 6.0 0.00 0.00 0.00 87 1012.9
20260509224123 70 135 4.0 5.0 0.00 0.00 0.00 87 1012.4
20260509223041 70 113 4.0 7.0 0.00 0.00 0.00 87 1012.4
20260509221950 70 68 3.0 7.0 0.00 0.00 0.00 87 1012.9
20260509220902 70 135 3.0 6.0 0.00 0.00 0.00 87 1012.9
20260509215820 70 113 1.0 4.0 0.00 0.00 0.00 87 1012.2
20260509214731 70 45 2.0 4.0 0.00 0.00 0.00 87 1012.2
20260509214123 70 113 2.0 4.0 0.00 0.00 0.00 87 1011.5
20260509212602 70 90 3.0 5.0 0.00 0.00 0.00 87 1011.5
20260509211514 70 68 4.0 5.0 0.00 0.00 0.00 87 1012.7
20260509210428 70 90 4.0 6.0 0.00 0.00 0.00 87 1012.7
20260509205342 69 68 3.0 6.0 0.00 0.00 0.00 87 1012.5
20260509204256 69 68 3.0 4.0 0.00 0.00 0.00 87 1012.5
20260509203211 69 113 4.0 9.0 0.00 0.00 0.00 87 1012.4
20260509202131 69 45 5.0 9.0 0.00 0.00 0.00 87 1012.4
20260509201514 69 68 5.0 7.0 0.00 0.00 0.00 87 1012.4
20260509195953 69 68 5.0 9.0 0.00 0.00 0.00 87 1013.3
20260509195354 69 68 6.0 11.0 0.00 0.00 0.00 87 1013.3
20260509193823 69 68 6.0 11.0 0.00 0.00 0.00 87 1013.6
20260509192737 69 68 4.0 7.0 0.00 0.00 0.00 87 1013.6
20260509191657 69 248 2.0 5.0 0.00 0.00 0.00 87 1013.2
20260509190606 69 45 4.0 6.0 0.00 0.00 0.00 87 1013.2
20260509185520 69 113 3.0 7.0 0.00 0.00 0.00 87 1014.2
20260509184919 69 68 4.0 5.0 0.00 0.00 0.00 87 1014.2
20260509183351 69 90 4.0 8.0 0.00 0.00 0.00 87 1015.1
20260509182306 69 293 2.0 7.0 0.00 0.00 0.00 87 1015.1
20260509181224 69 68 6.0 8.0 0.00 0.00 0.00 87 1013.8
20260509180131 69 68 7.0 11.0 0.00 0.00 0.00 87 1013.7
20260509175045 69 68 8.0 10.0 0.00 0.00 0.00 87 1013.7
20260509174440 69 68 4.0 7.0 0.00 0.00 0.00 86 1014.2
20260509173348 69 135 7.0 12.0 0.00 0.00 0.00 86 1014.2
20260509171827 69 45 7.0 12.0 0.00 0.00 0.00 86 1014.6
20260509170751 69 338 7.0 12.0 0.00 0.00 0.00 86 1014.6
20260509165654 69 68 6.0 10.0 0.00 0.00 0.00 86 1014.3
20260509164609 69 45 6.0 11.0 0.00 0.00 0.00 86 1014.3
20260509163522 70 68 6.0 8.0 0.00 0.00 0.00 86 1014.8
20260509162437 69 23 6.0 11.0 0.00 0.00 0.00 86 1014.8
20260509161352 69 90 4.0 7.0 0.00 0.00 0.00 85 1014.8
20260509160309 70 45 2.0 5.0 0.00 0.00 0.00 85 1014.8
20260509155218 69 338 4.0 10.0 0.00 0.00 0.00 85 1014.4
20260509154133 69 338 5.0 8.0 0.00 0.00 0.00 85 1014.5
20260509153530 69 23 4.0 7.0 0.00 0.00 0.00 85 1014.5
20260509152435 69 23 5.0 9.0 0.00 0.00 0.00 84 1014.4
20260509150912 69 315 4.0 6.0 0.00 0.00 0.00 84 1014.4
20260509150752 69 23 5.0 9.0 0.00 0.00 0.00 84 1014.2
20260509145224 69 338 8.0 15.0 0.00 0.00 0.00 83 1014.2
20260509143658 69 68 10.0 15.0 0.00 0.00 0.00 82 1013.9
20260509142610 71 23 11.0 13.0 0.00 0.00 0.00 79 1013.9
20260509141524 72 338 9.0 16.0 0.00 0.00 0.00 79 1013.7
20260509140440 73 338 12.0 22.0 0.00 0.00 0.00 80 1013.7
20260509135358 77 0 2.0 6.0 0.00 0.00 0.00 85 1012.8
20260509134309 78 203 4.0 8.0 0.00 0.00 0.00 85 1012.8
20260509133223 77 158 5.0 9.0 0.00 0.00 0.00 85 1012.4
20260509132137 77 158 4.0 8.0 0.00 0.00 0.00 86 1012.4
20260509131052 77 158 4.0 9.0 0.00 0.00 0.00 86 1012.4
20260509130007 77 180 4.0 9.0 0.00 0.00 0.00 86 1012.2
20260509124926 77 180 3.0 7.0 0.00 0.00 0.00 86 1012.2
20260509123834 76 180 4.0 8.0 0.00 0.00 0.00 86 1012.1
20260509122746 76 158 3.0 5.0 0.00 0.00 0.00 86 1012.1
20260509122619 76 158 4.0 8.0 0.00 0.00 0.00 86 1012.1
20260509120617 76 135 3.0 5.0 0.00 0.00 0.00 85 1012.1
20260509115528 76 180 3.0 5.0 0.00 0.00 0.00 85 1011.9
20260509114446 76 158 2.0 4.0 0.00 0.00 0.00 85 1011.9
20260509113852 76 158 2.0 4.0 0.00 0.00 0.00 85 1011.9
20260509112310 76 180 3.0 6.0 0.00 0.00 0.00 85 1011.9
20260509111224 76 135 4.0 7.0 0.00 0.00 0.00 85 1011.3
20260509110138 75 135 4.0 8.0 0.00 0.00 0.00 85 1010.9
20260509105051 75 135 5.0 7.0 0.00 0.00 0.00 84 1010.9
20260509104012 75 135 4.0 10.0 0.00 0.00 0.00 84 1010.5
20260509102923 75 113 4.0 9.0 0.00 0.00 0.00 84 1010.5
20260509102320 75 135 5.0 9.0 0.00 0.00 0.00 84 1010.5
20260509100751 75 135 6.0 7.0 0.00 0.00 0.00 83 1010.5
20260509095704 75 113 5.0 9.0 0.00 0.00 0.00 83 1010.5
20260509094621 75 135 6.0 11.0 0.00 0.00 0.00 83 1010.5
20260509093539 75 113 8.0 13.0 0.00 0.00 0.00 83 1010.5
20260509092448 75 113 8.0 10.0 0.00 0.00 0.00 83 1010.5
20260509091402 75 135 6.0 13.0 0.00 0.00 0.00 82 1010.9
20260509090319 75 113 6.0 9.0 0.00 0.00 0.00 82 1010.9
20260509085232 75 113 5.0 9.0 0.00 0.00 0.00 82 1011.5
20260509084145 75 113 4.0 7.0 0.00 0.00 0.00 82 1011.5
20260509083101 75 68 4.0 9.0 0.00 0.00 0.00 81 1011.2
20260509082010 75 68 7.0 8.0 0.00 0.00 0.00 81 1011.2
20260509080927 75 68 7.0 11.0 0.00 0.00 0.00 81 1011.2
20260509080148 75 135 6.0 9.0 0.00 0.00 0.00 80 1012.3
20260509075842 75 68 8.0 14.0 0.00 0.00 0.00 81 1012.3
20260509073707 75 113 4.0 7.0 0.00 0.00 0.00 80 1011.8
20260509072629 75 113 6.0 10.0 0.00 0.00 0.00 80 1011.8
20260509071538 75 135 6.0 10.0 0.00 0.00 0.00 80 1012.3
20260509070452 74 135 6.0 9.0 0.00 0.00 0.00 80 1012.3
20260509065842 74 135 8.0 13.0 0.00 0.00 0.00 80 1012.3
20260509064322 74 158 5.0 12.0 0.00 0.00 0.00 81 1012.3
20260509063234 74 113 7.0 11.0 0.00 0.00 0.00 80 1012.6
20260509062153 74 113 5.0 9.0 0.00 0.00 0.00 80 1012.6
20260509061542 74 90 8.0 14.0 0.00 0.00 0.00 80 1012.1
20260509060943 74 135 8.0 11.0 0.00 0.00 0.00 80 1013.2
20260509054929 74 135 8.0 10.0 0.00 0.00 0.00 79 1013.2
20260509053844 74 113 7.0 14.0 0.00 0.00 0.00 79 1013.1
20260509052758 74 135 6.0 12.0 0.00 0.00 0.00 80 1013.1
20260509051715 74 135 7.0 15.0 0.00 0.00 0.00 80 1013.4
20260509051058 74 113 6.0 11.0 0.00 0.00 0.00 80 1013.4
20260509045536 74 113 7.0 11.0 0.00 0.00 0.00 80 1013.5
20260509044930 74 113 6.0 10.0 0.00 0.00 0.00 81 1013.5
20260509043403 74 113 7.0 9.0 0.00 0.00 0.00 82 1013.2
20260509042320 74 90 5.0 15.0 0.00 0.00 0.00 83 1013.2
20260509041237 73 68 3.0 6.0 0.00 0.00 0.00 84 1013.3
20260509040146 73 113 2.0 3.0 0.00 0.00 0.00 84 1013.3
20260509035543 73 68 1.0 3.0 0.00 0.00 0.00 84 1013.4
20260509034019 73 68 1.0 3.0 0.00 0.00 0.00 84 1013.5
20260509033400 73 45 2.0 3.0 0.00 0.00 0.00 83 1013.5
20260509031843 73 68 2.0 3.0 0.00 0.00 0.00 83 1013.2
20260509030803 73 113 4.0 7.0 0.00 0.00 0.00 83 1013.2
20260509025712 73 90 4.0 6.0 0.00 0.00 0.00 83 1012.9
20260509025100 73 68 3.0 5.0 0.00 0.00 0.00 83 1012.9
20260509023539 73 45 5.0 8.0 0.00 0.00 0.00 83 1012.2
20260509022455 73 113 6.0 12.0 0.00 0.00 0.00 83 1012.2
20260509021411 73 68 5.0 9.0 0.00 0.00 0.00 83 1012.2
20260509020330 73 90 5.0 9.0 0.00 0.00 0.00 83 1012.2
20260509015235 73 135 9.0 15.0 0.00 0.00 0.00 83 1012.2
20260509014149 73 270 7.0 11.0 0.00 0.00 0.00 83 1012.2
20260509013104 72 90 7.0 11.0 0.00 0.00 0.00 83 1012.1
20260509012030 72 113 7.0 10.0 0.00 0.00 0.00 83 1011.6
20260509010931 72 113 5.0 6.0 0.00 0.00 0.00 83 1011.6
20260509010334 72 68 5.0 9.0 0.00 0.00 0.00 83 1012.4
20260509005233 72 113 5.0 10.0 0.00 0.00 0.00 83 1012.4